| time (UTC) | temp C | wind direction | speed KPH | gust KPH | rain 1hr cm | rain 24hr cm | rain mn cm | humidity % | barometer mb |
| 20260906214600 | 32 | 219 | 9.7 | 25.7 | 0.00 | 0.00 | 0.00 | 16 | 1013.9 |
| 20260906213057 | 32 | 212 | 9.7 | 22.5 | 0.00 | 0.00 | 0.00 | 15 | 1014.0 |
| 20260906211601 | 32 | 174 | 11.3 | 24.1 | 0.00 | 0.00 | 0.00 | 16 | 1014.2 |
| 20260906210131 | 31 | 185 | 11.3 | 33.8 | 0.00 | 0.00 | 0.00 | 15 | 1014.8 |
| 20260906204603 | 32 | 224 | 9.7 | 30.6 | 0.00 | 0.00 | 0.00 | 14 | 1014.8 |
| 20260906203106 | 32 | 161 | 11.3 | 30.6 | 0.00 | 0.00 | 0.00 | 15 | 1015.0 |
| 20260906201604 | 32 | 182 | 12.9 | 29.0 | 0.00 | 0.00 | 0.00 | 14 | 1015.1 |
| 20260906200109 | 32 | 179 | 16.1 | 30.6 | 0.00 | 0.00 | 0.00 | 12 | 1014.9 |
| 20260906194603 | 32 | 211 | 17.7 | 35.4 | 0.00 | 0.00 | 0.00 | 14 | 1015.0 |
| 20260906193104 | 32 | 191 | 12.9 | 33.8 | 0.00 | 0.00 | 0.00 | 15 | 1015.2 |
| 20260906191604 | 31 | 183 | 14.5 | 35.4 | 0.00 | 0.00 | 0.00 | 16 | 1015.5 |
| 20260906190109 | 31 | 195 | 9.7 | 22.5 | 0.00 | 0.00 | 0.00 | 16 | 1015.6 |
| 20260906184628 | 31 | 195 | 11.3 | 35.4 | 0.00 | 0.00 | 0.00 | 17 | 1015.8 |
| 20260906183058 | 31 | 188 | 12.9 | 27.4 | 0.00 | 0.00 | 0.00 | 17 | 1016.2 |
| 20260906181602 | 31 | 159 | 9.7 | 25.7 | 0.00 | 0.00 | 0.00 | 17 | 1016.3 |
| 20260906180107 | 30 | 152 | 11.3 | 25.7 | 0.00 | 0.00 | 0.00 | 19 | 1016.6 |
| 20260906174601 | 30 | 199 | 9.7 | 27.4 | 0.00 | 0.00 | 0.00 | 19 | 1016.9 |
| 20260906173116 | 29 | 195 | 11.3 | 25.7 | 0.00 | 0.00 | 0.00 | 20 | 1017.1 |
| 20260906171601 | 28 | 157 | 9.7 | 27.4 | 0.00 | 0.00 | 0.00 | 22 | 1017.4 |
| 20260906170109 | 28 | 184 | 8.0 | 19.3 | 0.00 | 0.00 | 0.00 | 26 | 1017.5 |
| 20260906164604 | 27 | 178 | 8.0 | 17.7 | 0.00 | 0.00 | 0.00 | 28 | 1017.6 |
| 20260906163105 | 26 | 203 | 1.6 | 17.7 | 0.00 | 0.00 | 0.00 | 31 | 1017.9 |
| 20260906161559 | 25 | 189 | 3.2 | 8.0 | 0.00 | 0.00 | 0.00 | 36 | 1018.0 |
| 20260906154558 | 22 | 112 | 0.0 | 3.2 | 0.00 | 0.00 | 0.00 | 45 | 1018.4 |
| 20260906153058 | 21 | 190 | 3.2 | 9.7 | 0.00 | 0.00 | 0.00 | 46 | 1018.5 |
| 20260906151558 | 20 | 191 | 1.6 | 6.4 | 0.00 | 0.00 | 0.00 | 47 | 1018.6 |
| 20260906150107 | 19 | 191 | 0.0 | 4.8 | 0.00 | 0.00 | 0.00 | 49 | 1018.6 |
| 20260906144602 | 18 | 0 | 0.0 | 8.0 | 0.00 | 0.00 | 0.00 | 51 | 1018.7 |
| 20260906143101 | 17 | 153 | 1.6 | 6.4 | 0.00 | 0.00 | 0.00 | 51 | 1018.9 |
| 20260906141555 | 16 | 0 | 0.0 | 3.2 | 0.00 | 0.00 | 0.00 | 54 | 1018.8 |
| 20260906134617 | 14 | 0 | 0.0 | 4.8 | 0.00 | 0.00 | 0.00 | 58 | 1018.8 |
| 20260906133106 | 13 | 83 | 3.2 | 6.4 | 0.00 | 0.00 | 0.00 | 59 | 1018.8 |
| 20260906131559 | 12 | 0 | 0.0 | 4.8 | 0.00 | 0.00 | 0.00 | 62 | 1018.9 |
| 20260906130146 | 12 | 350 | 1.6 | 4.8 | 0.00 | 0.00 | 0.00 | 62 | 1018.9 |
| 20260906124609 | 12 | 350 | 0.0 | 4.8 | 0.00 | 0.00 | 0.00 | 62 | 1018.7 |
| 20260906123103 | 12 | 350 | 1.6 | 6.4 | 0.00 | 0.00 | 0.00 | 61 | 1018.5 |
| 20260906121608 | 13 | 0 | 0.0 | 3.2 | 0.00 | 0.00 | 0.00 | 61 | 1018.5 |
| 20260906120110 | 12 | 0 | 0.0 | 4.8 | 0.00 | 0.00 | 0.00 | 62 | 1018.5 |
| 20260906114559 | 12 | 350 | 1.6 | 4.8 | 0.00 | 0.00 | 0.00 | 60 | 1018.6 |
| 20260906113105 | 13 | 350 | 1.6 | 4.8 | 0.00 | 0.00 | 0.00 | 59 | 1018.6 |
| 20260906111557 | 13 | 350 | 1.6 | 4.8 | 0.00 | 0.00 | 0.00 | 57 | 1018.6 |
| 20260906110100 | 13 | 350 | 0.0 | 4.8 | 0.00 | 0.00 | 0.00 | 57 | 1018.7 |
| 20260906104602 | 13 | 350 | 0.0 | 6.4 | 0.00 | 0.00 | 0.00 | 57 | 1018.6 |
| 20260906103101 | 13 | 350 | 0.0 | 4.8 | 0.00 | 0.00 | 0.00 | 56 | 1018.6 |
| 20260906101600 | 13 | 350 | 3.2 | 6.4 | 0.00 | 0.00 | 0.00 | 55 | 1018.7 |
| 20260906094558 | 14 | 350 | 1.6 | 4.8 | 0.00 | 0.00 | 0.00 | 54 | 1018.5 |
| 20260906093057 | 15 | 350 | 3.2 | 4.8 | 0.00 | 0.00 | 0.00 | 53 | 1018.3 |
| 20260906091601 | 15 | 0 | 1.6 | 6.4 | 0.00 | 0.00 | 0.00 | 53 | 1018.3 |
| 20260906090108 | 16 | 55 | 3.2 | 4.8 | 0.00 | 0.00 | 0.00 | 51 | 1018.3 |
| 20260906084556 | 16 | 0 | 0.0 | 0.0 | 0.00 | 0.00 | 0.00 | 50 | 1018.3 |
| 20260906083105 | 16 | 0 | 0.0 | 0.0 | 0.00 | 0.00 | 0.00 | 50 | 1018.3 |
| 20260906081600 | 17 | 0 | 0.0 | 0.0 | 0.00 | 0.00 | 0.00 | 49 | 1018.3 |
| 20260906080103 | 17 | 0 | 0.0 | 0.0 | 0.00 | 0.00 | 0.00 | 48 | 1018.3 |
| 20260906074602 | 17 | 0 | 0.0 | 1.6 | 0.00 | 0.00 | 0.00 | 49 | 1018.3 |
| 20260906073059 | 17 | 0 | 0.0 | 0.0 | 0.00 | 0.00 | 0.00 | 49 | 1018.3 |
| 20260906071600 | 18 | 0 | 0.0 | 0.0 | 0.00 | 0.00 | 0.00 | 48 | 1018.3 |
| 20260906070106 | 18 | 0 | 0.0 | 0.0 | 0.00 | 0.00 | 0.00 | 46 | 1018.2 |
| 20260906064600 | 18 | 0 | 0.0 | 0.0 | 0.00 | 0.00 | 0.00 | 45 | 1018.1 |
| 20260906063101 | 18 | 0 | 0.0 | 3.2 | 0.00 | 0.00 | 0.00 | 44 | 1018.1 |
| 20260906061611 | 18 | 0 | 0.0 | 6.4 | 0.00 | 0.00 | 0.00 | 44 | 1018.0 |
| 20260906060111 | 19 | 0 | 0.0 | 6.4 | 0.00 | 0.00 | 0.00 | 43 | 1018.2 |
| 20260906054600 | 19 | 350 | 0.0 | 4.8 | 0.00 | 0.00 | 0.00 | 42 | 1018.1 |
| 20260906053102 | 20 | 0 | 0.0 | 8.0 | 0.00 | 0.00 | 0.00 | 43 | 1018.1 |
| 20260906051608 | 20 | 335 | 1.6 | 4.8 | 0.00 | 0.00 | 0.00 | 41 | 1018.2 |
| 20260906050107 | 20 | 336 | 3.2 | 6.4 | 0.00 | 0.00 | 0.00 | 39 | 1018.2 |
| 20260906044600 | 21 | 0 | 0.0 | 6.4 | 0.00 | 0.00 | 0.00 | 39 | 1018.5 |
| 20260906043056 | 21 | 0 | 1.6 | 6.4 | 0.00 | 0.00 | 0.00 | 37 | 1018.4 |
| 20260906041601 | 22 | 309 | 3.2 | 11.3 | 0.00 | 0.00 | 0.00 | 35 | 1018.2 |
| 20260906040101 | 23 | 316 | 3.2 | 9.7 | 0.00 | 0.00 | 0.00 | 34 | 1018.1 |
| 20260906034603 | 23 | 310 | 1.6 | 11.3 | 0.00 | 0.00 | 0.00 | 33 | 1018.1 |
| 20260906033101 | 24 | 0 | 1.6 | 14.5 | 0.00 | 0.00 | 0.00 | 32 | 1018.1 |
| 20260906031600 | 25 | 330 | 4.8 | 11.3 | 0.00 | 0.00 | 0.00 | 31 | 1017.9 |
| 20260906030100 | 25 | 309 | 6.4 | 11.3 | 0.00 | 0.00 | 0.00 | 30 | 1017.9 |
| 20260906024555 | 25 | 328 | 4.8 | 11.3 | 0.00 | 0.00 | 0.00 | 30 | 1017.6 |
| 20260906023107 | 25 | 355 | 4.8 | 8.0 | 0.00 | 0.00 | 0.00 | 30 | 1017.4 |
| 20260906021601 | 26 | 355 | 4.8 | 8.0 | 0.00 | 0.00 | 0.00 | 29 | 1017.1 |
| 20260906020105 | 26 | 345 | 4.8 | 14.5 | 0.00 | 0.00 | 0.00 | 28 | 1016.8 |
| 20260906014606 | 27 | 333 | 4.8 | 12.9 | 0.00 | 0.00 | 0.00 | 27 | 1016.7 |
| 20260906013100 | 28 | 332 | 4.8 | 9.7 | 0.00 | 0.00 | 0.00 | 26 | 1016.6 |
| 20260906011607 | 29 | 359 | 3.2 | 8.0 | 0.00 | 0.00 | 0.00 | 24 | 1016.6 |
| 20260906004608 | 31 | 187 | 4.8 | 14.5 | 0.00 | 0.00 | 0.00 | 21 | 1016.3 |
| 20260906003059 | 31 | 250 | 6.4 | 20.9 | 0.00 | 0.00 | 0.00 | 20 | 1016.4 |
| 20260906001601 | 31 | 190 | 4.8 | 22.5 | 0.00 | 0.00 | 0.00 | 20 | 1016.2 |
| 20260906000106 | 32 | 188 | 6.4 | 24.1 | 0.00 | 0.00 | 0.00 | 20 | 1016.3 |
| 20260905234602 | 32 | 155 | 9.7 | 24.1 | 0.00 | 0.00 | 0.00 | 19 | 1016.2 |
| 20260905233106 | 32 | 147 | 9.7 | 27.4 | 0.00 | 0.00 | 0.00 | 20 | 1016.2 |
| 20260905231602 | 32 | 176 | 3.2 | 19.3 | 0.00 | 0.00 | 0.00 | 20 | 1016.0 |
| 20260905230103 | 32 | 213 | 3.2 | 19.3 | 0.00 | 0.00 | 0.00 | 20 | 1016.1 |
| 20260905224559 | 32 | 189 | 4.8 | 19.3 | 0.00 | 0.00 | 0.00 | 21 | 1016.1 |
| 20260905223059 | 31 | 182 | 4.8 | 17.7 | 0.00 | 0.00 | 0.00 | 21 | 1016.3 |
| 20260905221602 | 31 | 230 | 4.8 | 22.5 | 0.00 | 0.00 | 0.00 | 21 | 1016.3 |